Torna al catalogo

YAOGAN-43 O1A

AttivoMilitareVLEO
NORAD 60458·PAYLOAD·🇨🇳 China

Lanciato Aug 16, 2024 da Xichang Satellite Launch Center

Loading…

Prossimi Passaggi (prossime 24 ore)

TLE

AggiornatoSource: Space-Track

Epoca: Sep 14, 2026, 11:42 UTC

1 60458U 24148A   26257.48802457  .00011839  00000-0  30851-3 0  9994
2 60458  35.0044 285.0807 0003970 296.3384  63.6927 15.38019174116195

Traccia YAOGAN-43 O1A in tempo reale con AllMySat

Download on the App Store